User: anonymous   Login
Location: Bittkow
(50.3000°N, 19.0000°E)
Time: 13:21:33
(UTC+00:00)
Language:

Cosmos 1500 - Orbit

View from above orbital plane
View from above orbital plane
View from above satellite
View from above satellite

Ground track
Ground track

The orbit data is extracted from the following two-line orbital elements,

1 14372U 83099A   20333.60280421 +.00001463 +00000-0 +68250-4 0  9999
2 14372 082.5145 176.5324 0015632 025.0165 032.1674 15.18960455028713
Epoch (UTC): 28 November 2020 14:28:02
Eccentricity: 0.0015632
inclination: 82.5145°
perigee height: 498 km
apogee height: 520 km
right ascension of ascending node: 176.5324°
argument of perigee: 25.0165°
revolutions per day: 15.18960455
mean anomaly at epoch: 32.1674°
orbit number at epoch: 2871

The dashed part of the orbit path shows where the satellite is in the earth's shadow,  

DLR